Flag for Spain Weather past 2 weeks in A Coruña, Spain

Now
66 °F

Passing clouds.


Feels Like: 66 °F
Forecast: 60 / 72 °F
Wind: 10 mph from Northeast

Location: La Coruna / Alvedro

Current Time: Sep 5, 2015 at 12:47:53 PM

Latest Report: Sep 5, 2015 at 12:00 PM


Visibility: N/A

Pressure: 30.18 "Hg

Humidity: 64%

Dew point: 54 °F

Location of A CoruñaLocation

Historic Weather in A Coruña — Graph

°F

A Coruña temperature yesterday

Maximum temperature yesterday: 68 °F (at 3:30 PM)
Minimum temperature yesterday: 54 °F (at 7:30 AM)
Average temperature yesterday: 62 °F

Past Weeks' High & Low Weather Summary

 TemperatureHumidityPressure
High81 °F (Aug 29, 4:00 PM)100% (Aug 26, 6:00 PM)30.18 "Hg (Aug 26, 6:00 PM)
Low54 °F (Sep 4, 7:30 AM)46% (Aug 24, 6:00 PM)29.62 "Hg (Aug 23, 2:30 PM)
Average66 °F80%30.00 "Hg
* Reported Aug 21 12:00 Noon — Sep 5 12:00 Noon, A Coruña, Weather by CustomWeather, © 2015

Note: Actual official high and low records may vary slightly from our data, if they occured in-between our weather recording intervals... More about our weather records

Advertising

A Coruña weather history for previous 24 hours

 ConditionsComfort  
Time TempWeatherWind HumidityBarometerVisibility
12:00 PM
Sat, Sep 5
66 °FPassing clouds.10 mph64%30.18 "HgN/A
11:30 AM66 °FPassing clouds.5 mph64%30.18 "HgN/A
11:00 AM63 °FPassing clouds.2 mph73%30.18 "HgN/A
10:30 AM63 °FPassing clouds.2 mph68%30.18 "HgN/A
10:00 AM61 °FPassing clouds.1 mph72%30.18 "HgN/A
9:30 AM59 °FLight fog.2 mph77%30.18 "HgN/A
9:00 AM57 °FLight fog.2 mph82%30.18 "HgN/A
8:30 AM57 °FLight fog.3 mph77%30.18 "HgN/A
8:00 AM57 °FLight fog.3 mph77%30.15 "HgN/A
7:30 AM57 °FPassing clouds.3 mph77%30.15 "HgN/A
7:00 AM57 °FPassing clouds.3 mph77%30.15 "HgN/A
6:30 AM57 °FPassing clouds.3 mph77%30.15 "HgN/A
6:00 AM57 °FPassing clouds.3 mph77%30.15 "HgN/A
5:30 AM59 °FPassing clouds.3 mph72%30.15 "HgN/A
1:00 AM57 °FPassing clouds.3 mph82%30.15 "HgN/A
12:30 AM59 °FPassing clouds.5 mph77%30.15 "HgN/A
12:00 AM59 °FPassing clouds.6 mph77%30.15 "HgN/A
11:30 PM
Fri, Sep 4
59 °FPassing clouds.5 mph77%30.15 "HgN/A
11:00 PM59 °FPassing clouds.7 mph77%30.15 "HgN/A
10:30 PM59 °FPassing clouds.5 mph77%30.15 "HgN/A
10:00 PM61 °FPassing clouds.5 mph72%30.15 "HgN/A
9:30 PM61 °FPassing clouds.6 mph72%30.12 "HgN/A
9:00 PM63 °FPassing clouds.5 mph68%30.12 "HgN/A
8:30 PM63 °FPassing clouds.10 mph64%30.12 "HgN/A
8:00 PM64 °FPassing clouds.9 mph64%30.12 "HgN/A
7:30 PM64 °FPassing clouds.9 mph64%30.09 "HgN/A
7:00 PM66 °FPassing clouds.13 mph60%30.09 "HgN/A
6:30 PM66 °FPassing clouds.10 mph60%30.09 "HgN/A
6:00 PM66 °FPassing clouds.9 mph60%30.09 "HgN/A
5:30 PM66 °FScattered clouds.9 mph56%30.09 "HgN/A
5:00 PM68 °FScattered clouds.12 mph56%30.09 "HgN/A
4:30 PM68 °FScattered clouds.12 mph60%30.09 "HgN/A
4:00 PM68 °FScattered clouds.12 mph56%30.09 "HgN/A
3:30 PM68 °FScattered clouds.9 mph56%30.09 "HgN/A
3:00 PM66 °FPartly sunny.9 mph60%30.09 "HgN/A
2:30 PM66 °FPartly sunny.7 mph60%30.12 "HgN/A
2:00 PM66 °FPartly sunny.9 mph60%30.12 "HgN/A
1:30 PM66 °FPartly sunny.10 mph56%30.12 "HgN/A
1:00 PM66 °FPartly sunny.8 mph60%30.12 "HgN/A
12:30 PM66 °FScattered clouds.10 mph56%30.12 "HgN/A
12:00 PM64 °FPassing clouds.10 mph64%30.12 "HgN/A
Weather by CustomWeather, © 2015

See weather overviewHow to use our weather pages